• In Latvia
  • List of Countries
  • For 7 days
  • Water Temperature
  • Satellite Maps
  • Weather Map
  • Weather Widgets
  • user-avatar
    Login

    Hourly Weather Perth

    Today, 27 May, Saturday

    Time Temperature Precipitation Wind Pressure Humidity
    00:00 +12°C° 0 mm 3 mps 766 mmHg 82%
    01:00 +12°C° 0 mm 3 mps 766 mmHg 84%
    02:00 +11°C° 0 mm 3 mps 766 mmHg 88%
    03:00 +11°C° 0 mm 3 mps 766 mmHg 89%
    04:00 +10°C° 0 mm 3 mps 766 mmHg 90%
    05:00 +10°C° 0 mm 3 mps 766 mmHg 91%
    06:00 +10°C° 0 mm 3 mps 766 mmHg 89%
    07:00 +10°C° 0 mm 3 mps 767 mmHg 87%
    08:00 +11°C° 0 mm 3 mps 767 mmHg 81%
    09:00 +13°C° 0 mm 3 mps 767 mmHg 72%
    10:00 +16°C° 0 mm 3 mps 767 mmHg 62%
    11:00 +17°C° 0 mm 3 mps 767 mmHg 53%
    12:00 +18°C° 0 mm 3 mps 767 mmHg 50%
    13:00 +19°C° 0 mm 3 mps 767 mmHg 47%
    14:00 +19°C° 0 mm 2 mps 766 mmHg 46%
    15:00 +18°C° 0 mm 2 mps 766 mmHg 50%
    16:00 +17°C° 0 mm 2 mps 767 mmHg 54%
    17:00 +16°C° 0 mm 2 mps 767 mmHg 59%
    18:00 +14°C° 0 mm 3 mps 767 mmHg 63%
    19:00 +13°C° 0 mm 3 mps 767 mmHg 67%
    20:00 +11°C° 0 mm 3 mps 768 mmHg 71%
    21:00 +11°C° 0 mm 3 mps 768 mmHg 73%
    22:00 +11°C° 0 mm 3 mps 768 mmHg 75%
    23:00 +10°C° 0 mm 3 mps 768 mmHg 77%

    Tomorrow, 28 May, Sunday

    Time Temperature Precipitation Wind Pressure Humidity
    00:00 +10°C° 0 mm 3 mps 768 mmHg 80%
    01:00 +10°C° 0 mm 3 mps 768 mmHg 83%
    02:00 +10°C° 0 mm 3 mps 768 mmHg 85%
    03:00 +10°C° 0 mm 3 mps 768 mmHg 87%
    04:00 +10°C° 0 mm 3 mps 768 mmHg 88%
    05:00 +9°C° 0 mm 3 mps 768 mmHg 90%
    06:00 +10°C° 0 mm 3 mps 768 mmHg 89%
    07:00 +10°C° 0 mm 3 mps 768 mmHg 87%
    08:00 +10°C° 0 mm 3 mps 769 mmHg 86%
    09:00 +12°C° 0 mm 3 mps 769 mmHg 76%
    10:00 +14°C° 0 mm 3 mps 769 mmHg 66%
    11:00 +18°C° 0 mm 3 mps 768 mmHg 57%
    12:00 +18°C° 0 mm 3 mps 768 mmHg 54%
    13:00 +19°C° 0 mm 2 mps 767 mmHg 51%
    14:00 +20°C° 0 mm 2 mps 766 mmHg 48%
    15:00 +19°C° 0 mm 2 mps 766 mmHg 52%
    16:00 +17°C° 0 mm 2 mps 766 mmHg 57%
    17:00 +16°C° 0 mm 2 mps 766 mmHg 62%
    18:00 +15°C° 0 mm 2 mps 767 mmHg 66%
    19:00 +13°C° 0 mm 3 mps 767 mmHg 69%
    20:00 +12°C° 0 mm 3 mps 767 mmHg 73%
    21:00 +12°C° 0 mm 3 mps 767 mmHg 74%
    22:00 +11°C° 0 mm 3 mps 768 mmHg 75%
    23:00 +11°C° 0 mm 3 mps 768 mmHg 75%

    Day after tomorrow, 29 May, Monday

    Time Temperature Precipitation Wind Pressure Humidity
    00:00 +11°C° 0 mm 3 mps 767 mmHg 76%
    01:00 +11°C° 0 mm 3 mps 767 mmHg 77%
    02:00 +11°C° 0 mm 3 mps 767 mmHg 78%
    03:00 +10°C° 0 mm 3 mps 767 mmHg 79%
    04:00 +10°C° 0 mm 3 mps 767 mmHg 79%
    05:00 +10°C° 0 mm 3 mps 767 mmHg 80%
    06:00 +10°C° 0 mm 3 mps 767 mmHg 79%
    07:00 +10°C° 0 mm 3 mps 767 mmHg 78%
    08:00 +10°C° 0 mm 3 mps 767 mmHg 77%
    09:00 +13°C° 0 mm 3 mps 767 mmHg 69%
    10:00 +16°C° 0 mm 3 mps 767 mmHg 60%
    11:00 +18°C° 0 mm 3 mps 767 mmHg 51%
    12:00 +19°C° 0 mm 3 mps 766 mmHg 47%
    13:00 +20°C° 0 mm 3 mps 766 mmHg 43%
    14:00 +21°C° 0 mm 2 mps 765 mmHg 39%
    15:00 +20°C° 0 mm 2 mps 765 mmHg 44%
    16:00 +19°C° 0 mm 2 mps 765 mmHg 49%
    17:00 +18°C° 0 mm 2 mps 765 mmHg 54%
    18:00 +17°C° 0 mm 3 mps 765 mmHg 55%
    19:00 +16°C° 0 mm 3 mps 765 mmHg 57%
    20:00 +14°C° 0 mm 4 mps 766 mmHg 58%
    21:00 +14°C° 0 mm 4 mps 766 mmHg 57%
    22:00 +14°C° 0 mm 4 mps 765 mmHg 57%
    23:00 +14°C° 0 mm 5 mps 765 mmHg 56%

    30 May, Tuesday

    Time Temperature Precipitation Wind Pressure Humidity
    00:00 +14°C° 0 mm 5 mps 765 mmHg 58%
    01:00 +14°C° 0 mm 5 mps 764 mmHg 59%
    02:00 +14°C° 0 mm 5 mps 764 mmHg 60%
    03:00 +14°C° 0 mm 5 mps 764 mmHg 60%
    04:00 +14°C° 0 mm 5 mps 764 mmHg 61%
    05:00 +14°C° 0 mm 5 mps 764 mmHg 61%
    06:00 +14°C° 0 mm 4 mps 764 mmHg 61%
    07:00 +15°C° 0 mm 4 mps 764 mmHg 60%
    08:00 +15°C° 0 mm 4 mps 764 mmHg 60%
    09:00 +18°C° 0 mm 4 mps 764 mmHg 54%
    10:00 +20°C° 0 mm 4 mps 764 mmHg 48%
    11:00 +23°C° 0 mm 4 mps 764 mmHg 42%
    12:00 +25°C° 0 mm 4 mps 764 mmHg 40%
    13:00 +26°C° 0 mm 4 mps 763 mmHg 38%
    14:00 +27°C° 0 mm 4 mps 762 mmHg 36%
    15:00 +25°C° 0 mm 3 mps 763 mmHg 45%
    16:00 +22°C° 0 mm 3 mps 763 mmHg 55%
    17:00 +20°C° 0 mm 2 mps 763 mmHg 64%
    18:00 +20°C° 0 mm 1 mps 763 mmHg 73%
    19:00 +18°C° 0 mm 1 mps 763 mmHg 83%
    20:00 +16°C° 0 mm 1 mps 764 mmHg 92%
    21:00 +15°C° 0 mm 1 mps 764 mmHg 92%
    22:00 +15°C° 0 mm 1 mps 764 mmHg 92%
    23:00 +15°C° 0 mm 1 mps 764 mmHg 92%

    31 May, Wednesday

    Time Temperature Precipitation Wind Pressure Humidity
    00:00 +15°C° 0 mm 1 mps 764 mmHg 89%
    01:00 +15°C° 0 mm 1 mps 763 mmHg 86%
    02:00 +15°C° 0 mm 2 mps 763 mmHg 84%
    03:00 +15°C° 0 mm 2 mps 763 mmHg 79%
    04:00 +15°C° 0 mm 2 mps 763 mmHg 75%
    05:00 +15°C° 0 mm 2 mps 763 mmHg 70%
    06:00 +16°C° 0 mm 3 mps 763 mmHg 65%
    07:00 +16°C° 0 mm 3 mps 763 mmHg 60%
    08:00 +17°C° 0 mm 3 mps 763 mmHg 55%
    09:00 +19°C° 0 mm 3 mps 763 mmHg 48%
    10:00 +22°C° 0 mm 4 mps 763 mmHg 42%
    11:00 +25°C° 0 mm 4 mps 763 mmHg 36%
    12:00 +26°C° 0 mm 4 mps 763 mmHg 35%
    13:00 +26°C° 0 mm 4 mps 762 mmHg 34%
    14:00 +27°C° 0 mm 4 mps 762 mmHg 33%
    15:00 +25°C° 0 mm 3 mps 762 mmHg 43%
    16:00 +24°C° 0 mm 3 mps 763 mmHg 52%
    17:00 +21°C° 0 mm 2 mps 763 mmHg 62%
    18:00 +19°C° 0 mm 2 mps 764 mmHg 73%
    19:00 +18°C° 0 mm 2 mps 764 mmHg 83%
    20:00 +16°C° 0 mm 2 mps 765 mmHg 94%
    21:00 +16°C° 0 mm 2 mps 765 mmHg 95%
    22:00 +16°C° 0 mm 2 mps 765 mmHg 96%
    23:00 +16°C° 0 mm 2 mps 765 mmHg 96%

    1 June, Thursday

    Time Temperature Precipitation Wind Pressure Humidity
    00:00 +16°C° 0 mm 2 mps 765 mmHg 97%
    01:00 +16°C° 0 mm 2 mps 765 mmHg 97%
    02:00 +16°C° 0 mm 2 mps 765 mmHg 97%
    03:00 +16°C° 0 mm 2 mps 765 mmHg 97%
    04:00 +16°C° 0 mm 2 mps 765 mmHg 97%
    05:00 +16°C° 0 mm 2 mps 765 mmHg 97%
    06:00 +16°C° 0 mm 2 mps 766 mmHg 97%
    07:00 +16°C° 0 mm 3 mps 766 mmHg 96%
    08:00 +17°C° 0 mm 3 mps 767 mmHg 95%
    09:00 +19°C° 0 mm 3 mps 767 mmHg 88%
    10:00 +20°C° 0 mm 3 mps 767 mmHg 80%
    11:00 +22°C° 0 mm 3 mps 767 mmHg 72%
    12:00 +24°C° 0 mm 3 mps 767 mmHg 69%
    13:00 +24°C° 0 mm 3 mps 766 mmHg 65%
    14:00 +25°C° 0 mm 4 mps 766 mmHg 62%
    15:00 +24°C° 0 mm 3 mps 766 mmHg 68%
    16:00 +23°C° 0 mm 2 mps 766 mmHg 73%
    17:00 +21°C° 0 mm 2 mps 767 mmHg 79%
    18:00 +19°C° 0 mm 2 mps 767 mmHg 85%
    19:00 +18°C° 0 mm 1 mps 767 mmHg 91%
    20:00 +16°C° 0 mm 1 mps 768 mmHg 97%
    21:00 +16°C° 0 mm 1 mps 768 mmHg 97%
    22:00 +15°C° 0 mm 1 mps 768 mmHg 97%
    23:00 +15°C° 0 mm 1 mps 768 mmHg 97%
    Show more